{"data":{"norad_id":65576,"epoch":"2026-05-23T00:39:08.433216Z","epoch_age_seconds":244884,"freshness":"STALE","line1":"1 65576U 25203M   26143.02718094 -.00000147  00000+0 -14623-3 0  9990","line2":"2 65576  81.3009  34.1803 0004751 263.8752  96.1863 13.82825318 35205","mean_motion":13.82825318,"eccentricity":0.0004751,"inclination_deg":81.3009,"raan_deg":34.1803,"arg_perigee_deg":263.8752,"mean_anomaly_deg":96.1863,"bstar":-0.00014623,"rev_number":3520,"period_min":104.13462794293,"perigee_km":950.39931177401,"apogee_km":957.3661969446,"semimajor_km":7332.0197543593,"source":"CELESTRAK","updated_at":"2026-05-25T13:38:25.170582Z"}}